Find Starlink 34315

NORAD ID: 64266 Int'l Des: 2025-120 Owner: SPXS Country: US Constellation: starlink operational
LEOCIRCULAR

当前视图

正在加载3D地球...

About Starlink 34315

Starlink 34315 (NORAD 64266) is a starlink constellation satellite (v2 mini) launched Jun 4, 2025 by SPXS of US. It operates in LEO, CIRCULAR orbit with a mass of 575.00 kg.

即将过境

Passes for default location (London). Set your location on the main map for personalized predictions.

高度历史

Loading altitude history...

两行轨道根数

1 64266U 25120L 26263.56706947 .00011996 00000-0 36555-3 0 9990
2 64266 53.1586 289.3186 0001452 87.0384 273.0785 15.34405219 73728
Epoch: Sep 20, 2026 • Age: 10 hours

当前状态

高度 465.7 km
远地点 / 近地点 N/A
速度 7.64 km/s
星下点 41.54°N, 19.56°W
发射日期 Jun 4, 2025
运行时间 1.2 years
类型 internet

技术详情

分类 Payload
质量 575.00 kg
干质量 530.00 kg
长度 0.30 m
跨度 29.00 m
形状 ? Box + pan
制造商 SPXS
平台类型 Starlink V2MO
阶段状态 In Orbit
所有者/国家 SPXS/US

Most Searched